GEOSCAN 5 (RS92S5)

Last updated on Sun Jun 21 2026 00:03:20 GMT+0000 (Coordinated Universal Time)

1 64891U 25155R 26171.40576882 .00012543 00000+0 39142-3 0 9999 2 64891 97.4549 140.8317 0007168 152.8960 207.2658 15.33330132 81312
UTC large
Height (km)
Speed (km/s)
/
Latitude / Longitude
Inclination (degrees)
Orbital Period (minutes)
Azimuth
Elevation
Range (km)
Doppler Factor

Next 0 passes for location: London (51.5072 / 0.1276)

No passes found over London.
GEOSCAN 5 (RS92S5)